Ord, NE

3:42 AM CDT on August 22, 2017 (GMT -0500)
Sharp

Weather History for KODX - March, 2014

Change the Weather History Date:

Friday, March 14, 2014

  Actual Average Record
Temperature  
Mean Temperature 48 °F 37 °F  
Max Temperature 61 °F 50 °F 75 °F (2016)
Min Temperature 34 °F 24 °F 8 °F (1997)
Degree Days  
Heating Degree Days 17 28  
Month to date heating degree days 466 430  
Since 1 July heating degree days 5447  
Cooling Degree Days 0 0  
Month to date cooling degree days 0 0  
Year to date cooling degree days 0 0  
Moisture  
Dew Point 19 °F    
Average Humidity 42    
Maximum Humidity 69    
Minimum Humidity 15    
Precipitation  
Precipitation 0.00 in 0.03 in 0.82 in (1953)
Month to date precipitation 0.01 0.31  
Year to date precipitation 0.26 1.12  
Sea Level Pressure  
Sea Level Pressure 29.89 in    
Wind  
Wind Speed 11 mph (WNW)    
Max Wind Speed 24 mph    
Max Gust Speed 31 mph    
Visibility 10 miles    
Events      
T = Trace of Precipitation, MM = Missing Value Source: NWS Daily Summary

Daily Weather History Graph

Daily Weather History Graph

Search for Another Location

Airport or City:

Trip Planner

Search our weather history database for the weather conditions in past years. The results will help you decide how hot, cold, wet, or windy it might be!

Date:

Astronomy

Mar. 14, 2014 Rise Set
Actual Time 7:49 AM CDT 7:41 PM CDT
Civil Twilight 7:21 AM CDT 8:09 PM CDT
Nautical Twilight 6:49 AM CDT 8:41 PM CDT
Astronomical Twilight 6:16 AM CDT 9:13 PM CDT
Moon 6:04 PM CDT (3/14) 6:31 AM CDT (3/14)
Length of Visible Light 12h 47m
Length of Day
11h 52m
Waxing Gibbous, 96% of the Moon is Illuminated
Mar 14
Waxing Gibbous
Mar 16
Full
Mar 23
Last Quarter
Mar 30
New
Apr 7
First Quarter

Hourly Weather History & Observations

Time (CDT) Temp. Windchill Dew Point Humidity Pressure Visibility Wind Dir Wind Speed Gust Speed Precip Events Conditions
12:53 AM 42.1 °F 35.7 °F 21.0 °F 43% 29.73 in 10.0 mi NW 11.5 mph - N/A   Clear
1:53 AM 46.0 °F 40.2 °F 25.0 °F 44% 29.75 in 10.0 mi NW 12.7 mph - N/A   Mostly Cloudy
2:53 AM 46.0 °F 40.6 °F 25.0 °F 44% 29.79 in 10.0 mi NNW 11.5 mph - N/A   Clear
3:53 AM 43.0 °F 36.4 °F 25.0 °F 49% 29.82 in 10.0 mi NW 12.7 mph - N/A   Scattered Clouds
4:53 AM 39.9 °F 32.9 °F 25.0 °F 55% 29.84 in 10.0 mi NW 11.5 mph - N/A   Clear
5:53 AM 39.0 °F 31.0 °F 25.0 °F 57% 29.88 in 10.0 mi NW 13.8 mph - N/A   Clear
6:53 AM 35.1 °F 27.4 °F 25.0 °F 67% 29.91 in 10.0 mi NW 10.4 mph - N/A   Clear
7:53 AM 34.0 °F 26.0 °F 25.0 °F 70% 29.95 in 10.0 mi NW 10.4 mph - N/A   Clear
8:53 AM 37.9 °F 30.9 °F 26.1 °F 62% 29.97 in 10.0 mi WNW 10.4 mph - N/A   Clear
9:53 AM 44.1 °F 37.4 °F 26.1 °F 49% 29.99 in 10.0 mi NW 13.8 mph - N/A   Clear
10:53 AM 46.9 °F - 24.1 °F 41% 29.99 in 10.0 mi NW 20.7 mph - N/A   Clear
11:53 AM 50.0 °F - 18.0 °F 28% 29.99 in 10.0 mi NW 20.7 mph - N/A   Clear
12:53 PM 54.0 °F - 14.0 °F 21% 29.98 in 10.0 mi NW 17.3 mph - N/A   Clear
1:53 PM 57.0 °F - 10.9 °F 16% 29.96 in 10.0 mi WNW 15.0 mph - N/A   Clear
2:53 PM 55.9 °F - 10.9 °F 17% 29.94 in 10.0 mi WNW 12.7 mph - N/A   Clear
3:53 PM 59.0 °F - 12.0 °F 16% 29.93 in 10.0 mi WNW 12.7 mph 21.9 mph N/A   Clear
4:53 PM 60.1 °F - 12.0 °F 15% 29.90 in 10.0 mi West 9.2 mph - N/A   Clear
5:53 PM 61.0 °F - 12.0 °F 15% 29.87 in 10.0 mi South 11.5 mph - N/A   Clear
6:53 PM 60.1 °F - 12.9 °F 16% 29.86 in 10.0 mi SSE 6.9 mph - N/A   Clear
7:53 PM 53.1 °F - 14.0 °F 21% 29.88 in 10.0 mi SE 4.6 mph - N/A   Clear
8:53 PM 43.0 °F 41.3 °F 16.0 °F 34% 29.90 in 10.0 mi ESE 3.5 mph - N/A   Clear
9:53 PM 39.9 °F 37.8 °F 15.1 °F 36% 29.89 in 10.0 mi ESE 3.5 mph - N/A   Clear
10:53 PM 37.9 °F - 16.0 °F 41% 29.87 in 10.0 mi Calm Calm - N/A   Clear
11:53 PM 39.9 °F 33.4 °F 19.9 °F 45% 29.86 in 10.0 mi SSW 10.4 mph - N/A   Clear